• In Hungary
  • List of Countries
  • For 7 days
  • Water Temperature
  • Satellite Maps
  • Weather Map
  • News
  • Weather Widgets
  • user-avatar
    Login

    Hourly Weather Spartak

    Today, 22 July, Sunday

    Time Temperature Precipitation Wind Pressure Humidity
    00:00 +21°C° 0 mm 1 mps 740 mmHg 89%
    01:00 +20°C° 0 mm 1 mps 740 mmHg 90%
    02:00 +20°C° 0 mm 1 mps 740 mmHg 90%
    03:00 +20°C° 0 mm 1 mps 740 mmHg 91%
    04:00 +20°C° 0 mm 1 mps 740 mmHg 90%
    05:00 +21°C° 0 mm 1 mps 740 mmHg 89%
    06:00 +21°C° 0 mm 1 mps 740 mmHg 88%
    07:00 +22°C° 0.2 mm 1 mps 740 mmHg 84%
    08:00 +24°C° 0.2 mm 2 mps 740 mmHg 80%
    09:00 +25°C° 0.2 mm 2 mps 740 mmHg 75%
    10:00 +26°C° 1.2 mm 2 mps 740 mmHg 73%
    11:00 +27°C° 1.2 mm 3 mps 740 mmHg 71%
    12:00 +27°C° 1.2 mm 3 mps 740 mmHg 69%
    13:00 +27°C° 1 mm 3 mps 740 mmHg 68%
    14:00 +28°C° 1 mm 3 mps 740 mmHg 67%
    15:00 +28°C° 1 mm 3 mps 740 mmHg 66%
    16:00 +27°C° 1.5 mm 3 mps 740 mmHg 70%
    17:00 +26°C° 1.5 mm 4 mps 740 mmHg 75%
    18:00 +25°C° 1.5 mm 4 mps 740 mmHg 80%
    19:00 +23°C° 0.3 mm 4 mps 740 mmHg 83%
    20:00 +22°C° 0.3 mm 5 mps 740 mmHg 86%
    21:00 +21°C° 0.3 mm 5 mps 741 mmHg 89%
    22:00 +20°C° 0 mm 5 mps 741 mmHg 91%
    23:00 +20°C° 0 mm 5 mps 741 mmHg 92%

    Tomorrow, 23 July, Monday

    Time Temperature Precipitation Wind Pressure Humidity
    00:00 +19°C° 0 mm 4 mps 741 mmHg 93%
    01:00 +19°C° 0.7 mm 4 mps 741 mmHg 94%
    02:00 +18°C° 0.7 mm 4 mps 741 mmHg 94%
    03:00 +18°C° 0.7 mm 3 mps 741 mmHg 95%
    04:00 +18°C° 0.1 mm 3 mps 741 mmHg 94%
    05:00 +19°C° 0.1 mm 3 mps 741 mmHg 94%
    06:00 +19°C° 0.1 mm 3 mps 741 mmHg 93%
    07:00 +21°C° 0.5 mm 3 mps 741 mmHg 87%
    08:00 +24°C° 0.5 mm 3 mps 741 mmHg 82%
    09:00 +26°C° 0.5 mm 3 mps 741 mmHg 76%
    10:00 +27°C° 0.9 mm 3 mps 741 mmHg 71%
    11:00 +28°C° 0.9 mm 3 mps 742 mmHg 66%
    12:00 +29°C° 0.9 mm 3 mps 742 mmHg 61%
    13:00 +29°C° 1.1 mm 3 mps 742 mmHg 61%
    14:00 +29°C° 1.1 mm 3 mps 742 mmHg 60%
    15:00 +29°C° 1.1 mm 3 mps 742 mmHg 60%
    16:00 +28°C° 1.2 mm 3 mps 742 mmHg 65%
    17:00 +28°C° 1.2 mm 3 mps 742 mmHg 70%
    18:00 +27°C° 1.2 mm 3 mps 742 mmHg 75%
    19:00 +26°C° 0.8 mm 3 mps 742 mmHg 78%
    20:00 +24°C° 0.8 mm 3 mps 742 mmHg 81%
    21:00 +22°C° 0.8 mm 3 mps 743 mmHg 84%
    22:00 +22°C° 0.8 mm 3 mps 743 mmHg 86%
    23:00 +21°C° 0.8 mm 4 mps 743 mmHg 89%

    Day after tomorrow, 24 July, Tuesday

    Time Temperature Precipitation Wind Pressure Humidity
    00:00 +21°C° 0.8 mm 4 mps 743 mmHg 91%
    01:00 +20°C° 0.8 mm 4 mps 743 mmHg 92%
    02:00 +20°C° 0.8 mm 4 mps 743 mmHg 93%
    03:00 +20°C° 0.8 mm 4 mps 743 mmHg 93%
    04:00 +20°C° 0.3 mm 4 mps 743 mmHg 93%
    05:00 +20°C° 0.3 mm 4 mps 744 mmHg 92%
    06:00 +20°C° 0.3 mm 4 mps 744 mmHg 91%
    07:00 +21°C° 0 mm 4 mps 744 mmHg 88%
    08:00 +22°C° 0 mm 4 mps 744 mmHg 85%
    09:00 +23°C° 0 mm 5 mps 744 mmHg 82%
    10:00 +25°C° 0.6 mm 5 mps 744 mmHg 79%
    11:00 +26°C° 0.6 mm 5 mps 745 mmHg 77%
    12:00 +27°C° 0.6 mm 6 mps 745 mmHg 74%
    13:00 +27°C° 1 mm 6 mps 745 mmHg 71%
    14:00 +26°C° 1 mm 6 mps 745 mmHg 68%
    15:00 +26°C° 1 mm 6 mps 745 mmHg 65%
    16:00 +26°C° 0.1 mm 6 mps 745 mmHg 67%
    17:00 +26°C° 0.1 mm 6 mps 745 mmHg 70%
    18:00 +25°C° 0.1 mm 5 mps 745 mmHg 72%
    19:00 +23°C° 0.1 mm 5 mps 746 mmHg 72%
    20:00 +22°C° 0.1 mm 5 mps 746 mmHg 71%
    21:00 +21°C° 0.1 mm 4 mps 746 mmHg 71%
    22:00 +21°C° 0 mm 4 mps 746 mmHg 70%
    23:00 +21°C° 0 mm 4 mps 746 mmHg 68%

    25 July, Wednesday

    Time Temperature Precipitation Wind Pressure Humidity
    00:00 +20°C° 0 mm 4 mps 747 mmHg 66%
    01:00 +20°C° 0 mm 4 mps 747 mmHg 67%
    02:00 +20°C° 0 mm 4 mps 747 mmHg 67%
    03:00 +19°C° 0 mm 4 mps 747 mmHg 67%
    04:00 +19°C° 0 mm 4 mps 747 mmHg 69%
    05:00 +19°C° 0 mm 4 mps 747 mmHg 70%
    06:00 +19°C° 0 mm 4 mps 748 mmHg 71%
    07:00 +20°C° 0 mm 5 mps 748 mmHg 66%
    08:00 +22°C° 0 mm 5 mps 748 mmHg 62%
    09:00 +24°C° 0 mm 6 mps 748 mmHg 57%
    10:00 +24°C° 0 mm 6 mps 749 mmHg 54%
    11:00 +26°C° 0 mm 7 mps 749 mmHg 51%
    12:00 +27°C° 0 mm 7 mps 749 mmHg 49%
    13:00 +27°C° 0 mm 7 mps 749 mmHg 49%
    14:00 +27°C° 0 mm 7 mps 749 mmHg 50%
    15:00 +27°C° 0 mm 7 mps 749 mmHg 51%
    16:00 +26°C° 0 mm 6 mps 748 mmHg 56%
    17:00 +26°C° 0 mm 5 mps 748 mmHg 62%
    18:00 +25°C° 0 mm 3 mps 748 mmHg 67%
    19:00 +24°C° 0 mm 3 mps 748 mmHg 71%
    20:00 +22°C° 0 mm 3 mps 748 mmHg 74%
    21:00 +20°C° 0 mm 3 mps 748 mmHg 78%
    22:00 +20°C° 0 mm 4 mps 748 mmHg 73%
    23:00 +21°C° 0 mm 4 mps 748 mmHg 69%

    26 July, Thursday

    Time Temperature Precipitation Wind Pressure Humidity
    00:00 +21°C° 0 mm 4 mps 748 mmHg 65%
    01:00 +21°C° 0 mm 4 mps 748 mmHg 64%
    02:00 +21°C° 0 mm 5 mps 748 mmHg 63%
    03:00 +21°C° 0 mm 5 mps 748 mmHg 62%
    04:00 +21°C° 0 mm 5 mps 748 mmHg 64%
    05:00 +21°C° 0 mm 5 mps 748 mmHg 67%
    06:00 +20°C° 0 mm 5 mps 748 mmHg 69%
    07:00 +22°C° 0 mm 5 mps 749 mmHg 66%
    08:00 +25°C° 0 mm 5 mps 749 mmHg 62%
    09:00 +27°C° 0 mm 6 mps 749 mmHg 58%
    10:00 +28°C° 0 mm 6 mps 749 mmHg 54%
    11:00 +30°C° 0 mm 6 mps 749 mmHg 50%
    12:00 +32°C° 0 mm 6 mps 749 mmHg 46%
    13:00 +33°C° 0 mm 6 mps 750 mmHg 46%
    14:00 +33°C° 0 mm 6 mps 750 mmHg 45%
    15:00 +33°C° 0 mm 6 mps 750 mmHg 45%
    16:00 +33°C° 0 mm 5 mps 750 mmHg 49%
    17:00 +32°C° 0 mm 5 mps 750 mmHg 53%
    18:00 +30°C° 0 mm 4 mps 750 mmHg 58%
    19:00 +29°C° 0 mm 5 mps 750 mmHg 59%
    20:00 +27°C° 0 mm 5 mps 750 mmHg 60%
    21:00 +26°C° 0 mm 5 mps 751 mmHg 62%
    22:00 +25°C° 0 mm 5 mps 751 mmHg 60%
    23:00 +25°C° 0 mm 5 mps 751 mmHg 59%

    27 July, Friday

    Time Temperature Precipitation Wind Pressure Humidity
    00:00 +25°C° 0 mm 5 mps 751 mmHg 58%
    01:00 +23°C° 0 mm 5 mps 751 mmHg 60%
    02:00 +22°C° 0 mm 5 mps 752 mmHg 62%
    03:00 +21°C° 0 mm 4 mps 752 mmHg 64%
    04:00 +21°C° 0 mm 4 mps 752 mmHg 67%
    05:00 +21°C° 0 mm 4 mps 752 mmHg 71%
    06:00 +21°C° 0 mm 5 mps 752 mmHg 74%
    07:00 +23°C° 0 mm 5 mps 752 mmHg 68%
    08:00 +26°C° 0 mm 6 mps 753 mmHg 62%
    09:00 +27°C° 0 mm 6 mps 753 mmHg 56%
    10:00 +28°C° 0 mm 6 mps 753 mmHg 54%
    11:00 +29°C° 0 mm 6 mps 753 mmHg 51%
    12:00 +30°C° 0 mm 6 mps 753 mmHg 48%
    13:00 +30°C° 0 mm 6 mps 753 mmHg 48%
    14:00 +30°C° 0 mm 6 mps 753 mmHg 48%
    15:00 +30°C° 0 mm 6 mps 752 mmHg 48%
    16:00 +29°C° 0 mm 5 mps 752 mmHg 52%
    17:00 +29°C° 0 mm 4 mps 752 mmHg 57%
    18:00 +28°C° 0 mm 4 mps 752 mmHg 61%
    19:00 +26°C° 0 mm 4 mps 752 mmHg 63%
    20:00 +25°C° 0 mm 4 mps 752 mmHg 66%
    21:00 +22°C° 0 mm 4 mps 752 mmHg 69%
    22:00 +22°C° 0 mm 4 mps 752 mmHg 69%
    23:00 +22°C° 0 mm 4 mps 753 mmHg 70%
    Show more